When you browse on this site, cookies collect data to enhance your experience and personalize the content and advertising you see.
Visit our Privacy Policy to learn more. By continuing to use the site, you agree to this use of cookies and data.
  • In Österreich
  • Länderverzeichnis
  • Für 7 Tage
  • Wassertemperatur
  • Satellitenkarten
  • Wetterkarte
  • News
  • Widgets
  • user-avatar
    Anmelden

    Stündliche Wetter Kashtelu-Branku

    Heute, 19 März, Dienstag

    Zeit Temperatur Niederschläge Wind Luftdruck Luftfeuchtigkeit
    00:00 +7°C° 0 mm 2 m/S 735 mmHg 59%
    01:00 +7°C° 0 mm 2 m/S 735 mmHg 59%
    02:00 +7°C° 0 mm 2 m/S 735 mmHg 59%
    03:00 +7°C° 0 mm 2 m/S 735 mmHg 59%
    04:00 +7°C° 0 mm 2 m/S 735 mmHg 61%
    05:00 +6°C° 0 mm 2 m/S 735 mmHg 62%
    06:00 +6°C° 0 mm 2 m/S 735 mmHg 63%
    07:00 +8°C° 0 mm 2 m/S 736 mmHg 59%
    08:00 +10°C° 0 mm 2 m/S 736 mmHg 56%
    09:00 +12°C° 0 mm 2 m/S 736 mmHg 52%
    10:00 +13°C° 0 mm 3 m/S 736 mmHg 48%
    11:00 +16°C° 0 mm 3 m/S 736 mmHg 44%
    12:00 +18°C° 0 mm 3 m/S 736 mmHg 40%
    13:00 +18°C° 0 mm 3 m/S 736 mmHg 39%
    14:00 +19°C° 0 mm 3 m/S 736 mmHg 38%
    15:00 +20°C° 0 mm 2 m/S 735 mmHg 37%
    16:00 +19°C° 0 mm 2 m/S 735 mmHg 43%
    17:00 +18°C° 0 mm 2 m/S 735 mmHg 49%
    18:00 +16°C° 0 mm 2 m/S 735 mmHg 54%
    19:00 +15°C° 0 mm 2 m/S 736 mmHg 56%
    20:00 +13°C° 0 mm 2 m/S 736 mmHg 58%
    21:00 +10°C° 0 mm 2 m/S 736 mmHg 59%
    22:00 +10°C° 0 mm 2 m/S 737 mmHg 60%
    23:00 +9°C° 0 mm 2 m/S 737 mmHg 61%

    Morgen, 20 März, Mittwoch

    Zeit Temperatur Niederschläge Wind Luftdruck Luftfeuchtigkeit
    00:00 +8°C° 0 mm 2 m/S 737 mmHg 61%
    01:00 +8°C° 0 mm 2 m/S 737 mmHg 63%
    02:00 +7°C° 0 mm 2 m/S 737 mmHg 64%
    03:00 +7°C° 0 mm 2 m/S 737 mmHg 66%
    04:00 +6°C° 0 mm 2 m/S 737 mmHg 67%
    05:00 +6°C° 0 mm 2 m/S 737 mmHg 67%
    06:00 +5°C° 0 mm 2 m/S 737 mmHg 68%
    07:00 +7°C° 0 mm 2 m/S 738 mmHg 62%
    08:00 +8°C° 0 mm 3 m/S 738 mmHg 56%
    09:00 +10°C° 0 mm 3 m/S 738 mmHg 50%
    10:00 +11°C° 0 mm 3 m/S 738 mmHg 46%
    11:00 +13°C° 0 mm 3 m/S 738 mmHg 41%
    12:00 +14°C° 0 mm 3 m/S 738 mmHg 37%
    13:00 +16°C° 0 mm 3 m/S 737 mmHg 36%
    14:00 +17°C° 0 mm 3 m/S 737 mmHg 34%
    15:00 +18°C° 0 mm 2 m/S 736 mmHg 32%
    16:00 +17°C° 0 mm 2 m/S 736 mmHg 39%
    17:00 +16°C° 0 mm 1 m/S 736 mmHg 45%
    18:00 +15°C° 0 mm 1 m/S 735 mmHg 51%
    19:00 +13°C° 0 mm 1 m/S 736 mmHg 53%
    20:00 +11°C° 0 mm 1 m/S 736 mmHg 54%
    21:00 +9°C° 0 mm 2 m/S 736 mmHg 56%
    22:00 +8°C° 0 mm 2 m/S 736 mmHg 58%
    23:00 +8°C° 0 mm 2 m/S 736 mmHg 60%

    übermorgen, 21 März, Donnerstag

    Zeit Temperatur Niederschläge Wind Luftdruck Luftfeuchtigkeit
    00:00 +7°C° 0 mm 2 m/S 736 mmHg 62%
    01:00 +7°C° 0 mm 2 m/S 736 mmHg 63%
    02:00 +6°C° 0 mm 2 m/S 736 mmHg 64%
    03:00 +7°C° 0 mm 1 m/S 736 mmHg 66%
    04:00 +5°C° 0 mm 2 m/S 736 mmHg 66%
    05:00 +5°C° 0 mm 2 m/S 736 mmHg 67%
    06:00 +5°C° 0 mm 2 m/S 736 mmHg 68%
    07:00 +6°C° 0 mm 2 m/S 737 mmHg 62%
    08:00 +8°C° 0 mm 3 m/S 737 mmHg 57%
    09:00 +10°C° 0 mm 3 m/S 738 mmHg 51%
    10:00 +12°C° 0 mm 3 m/S 738 mmHg 48%
    11:00 +13°C° 0 mm 4 m/S 738 mmHg 46%
    12:00 +15°C° 0 mm 4 m/S 738 mmHg 43%
    13:00 +17°C° 0 mm 3 m/S 737 mmHg 41%
    14:00 +17°C° 0 mm 3 m/S 737 mmHg 39%
    15:00 +18°C° 0 mm 3 m/S 736 mmHg 37%
    16:00 +17°C° 0 mm 2 m/S 736 mmHg 43%
    17:00 +16°C° 0 mm 2 m/S 736 mmHg 48%
    18:00 +15°C° 0 mm 1 m/S 736 mmHg 53%
    19:00 +13°C° 0 mm 1 m/S 736 mmHg 54%
    20:00 +11°C° 0 mm 1 m/S 736 mmHg 56%
    21:00 +10°C° 0 mm 1 m/S 737 mmHg 57%
    22:00 +9°C° 0 mm 1 m/S 737 mmHg 58%
    23:00 +9°C° 0 mm 1 m/S 737 mmHg 60%

    22 März, Freitag

    Zeit Temperatur Niederschläge Wind Luftdruck Luftfeuchtigkeit
    00:00 +8°C° 0 mm 1 m/S 737 mmHg 62%
    01:00 +8°C° 0 mm 1 m/S 737 mmHg 63%
    02:00 +8°C° 0 mm 1 m/S 736 mmHg 64%
    03:00 +7°C° 0 mm 1 m/S 736 mmHg 65%
    04:00 +7°C° 0 mm 1 m/S 736 mmHg 67%
    05:00 +7°C° 0 mm 1 m/S 736 mmHg 68%
    06:00 +6°C° 0 mm 1 m/S 736 mmHg 69%
    07:00 +8°C° 0 mm 1 m/S 737 mmHg 63%
    08:00 +9°C° 0 mm 2 m/S 737 mmHg 57%
    09:00 +12°C° 0 mm 2 m/S 737 mmHg 51%
    10:00 +14°C° 0 mm 2 m/S 737 mmHg 46%
    11:00 +16°C° 0 mm 3 m/S 737 mmHg 41%
    12:00 +18°C° 0 mm 3 m/S 737 mmHg 36%
    13:00 +18°C° 0 mm 3 m/S 736 mmHg 35%
    14:00 +19°C° 0 mm 3 m/S 736 mmHg 34%
    15:00 +19°C° 0 mm 3 m/S 735 mmHg 33%
    16:00 +18°C° 0 mm 2 m/S 735 mmHg 39%
    17:00 +17°C° 0 mm 2 m/S 734 mmHg 46%
    18:00 +16°C° 0 mm 1 m/S 734 mmHg 52%
    19:00 +14°C° 0 mm 1 m/S 734 mmHg 53%
    20:00 +13°C° 0 mm 1 m/S 735 mmHg 55%
    21:00 +11°C° 0 mm 1 m/S 735 mmHg 56%
    22:00 +11°C° 0 mm 1 m/S 735 mmHg 57%
    23:00 +10°C° 0 mm 2 m/S 735 mmHg 57%

    23 März, Samstag

    Zeit Temperatur Niederschläge Wind Luftdruck Luftfeuchtigkeit
    00:00 +9°C° 0 mm 2 m/S 735 mmHg 58%
    01:00 +9°C° 0 mm 2 m/S 734 mmHg 59%
    02:00 +8°C° 0 mm 2 m/S 734 mmHg 60%
    03:00 +8°C° 0 mm 2 m/S 734 mmHg 61%
    04:00 +8°C° 0 mm 2 m/S 734 mmHg 63%
    05:00 +7°C° 0 mm 2 m/S 734 mmHg 65%
    06:00 +7°C° 0 mm 2 m/S 734 mmHg 67%
    07:00 +9°C° 0 mm 3 m/S 734 mmHg 62%
    08:00 +11°C° 0 mm 3 m/S 734 mmHg 57%
    09:00 +13°C° 0 mm 4 m/S 734 mmHg 52%
    10:00 +14°C° 0 mm 4 m/S 734 mmHg 47%
    11:00 +16°C° 0 mm 5 m/S 734 mmHg 42%
    12:00 +19°C° 0 mm 5 m/S 733 mmHg 37%
    13:00 +19°C° 0 mm 5 m/S 733 mmHg 36%
    14:00 +20°C° 0 mm 5 m/S 732 mmHg 35%
    15:00 +20°C° 0 mm 4 m/S 731 mmHg 35%
    16:00 +19°C° 0 mm 4 m/S 731 mmHg 40%
    17:00 +18°C° 0 mm 3 m/S 731 mmHg 46%
    18:00 +17°C° 0 mm 2 m/S 731 mmHg 52%
    19:00 +16°C° 0 mm 2 m/S 731 mmHg 54%
    20:00 +14°C° 0 mm 2 m/S 732 mmHg 56%
    21:00 +13°C° 0 mm 2 m/S 732 mmHg 58%
    22:00 +12°C° 0 mm 2 m/S 732 mmHg 59%
    23:00 +10°C° 0 mm 2 m/S 732 mmHg 60%

    24 März, Sonntag

    Zeit Temperatur Niederschläge Wind Luftdruck Luftfeuchtigkeit
    00:00 +10°C° 0 mm 2 m/S 732 mmHg 61%
    01:00 +9°C° 0 mm 2 m/S 731 mmHg 64%
    02:00 +9°C° 0 mm 2 m/S 731 mmHg 68%
    03:00 +8°C° 0 mm 2 m/S 731 mmHg 72%
    04:00 +8°C° 0 mm 2 m/S 731 mmHg 74%
    05:00 +8°C° 0 mm 2 m/S 731 mmHg 77%
    06:00 +8°C° 0 mm 2 m/S 731 mmHg 80%
    07:00 +9°C° 0 mm 3 m/S 732 mmHg 74%
    08:00 +11°C° 0 mm 4 m/S 732 mmHg 68%
    09:00 +12°C° 0 mm 5 m/S 732 mmHg 62%
    10:00 +14°C° 0 mm 5 m/S 732 mmHg 57%
    11:00 +15°C° 0 mm 5 m/S 732 mmHg 53%
    12:00 +17°C° 0 mm 5 m/S 732 mmHg 48%
    13:00 +17°C° 0 mm 5 m/S 731 mmHg 47%
    14:00 +19°C° 0 mm 5 m/S 731 mmHg 47%
    15:00 +19°C° 0 mm 6 m/S 731 mmHg 47%
    16:00 +17°C° 0 mm 5 m/S 730 mmHg 52%
    17:00 +17°C° 0 mm 4 m/S 730 mmHg 57%
    18:00 +14°C° 0 mm 3 m/S 730 mmHg 63%
    19:00 +13°C° 0 mm 3 m/S 731 mmHg 67%
    20:00 +13°C° 0 mm 2 m/S 731 mmHg 71%
    21:00 +12°C° 0 mm 2 m/S 731 mmHg 76%
    22:00 +12°C° 0 mm 2 m/S 731 mmHg 77%
    23:00 +10°C° 0 mm 2 m/S 731 mmHg 79%
    Mehr zeigen